| time (UTC) | temp F | wind direction | speed knots | gust knots | rain 1hr in | rain 24hr in | rain mn in | humidity % | barometer mb |
| 20260506014910 | 61 | 171 | 2.6 | 7.8 | 0.00 | 0.01 | 0.01 | 73 | 1011.0 |
| 20260506013527 | 62 | 170 | 2.6 | 8.7 | 0.00 | 0.01 | 0.01 | 71 | 1010.8 |
| 20260506011925 | 62 | 170 | 1.7 | 7.0 | 0.00 | 0.01 | 0.01 | 70 | 1010.6 |
| 20260506010438 | 63 | 170 | 3.5 | 12.2 | 0.00 | 0.01 | 0.01 | 69 | 1010.5 |
| 20260506005001 | 63 | 173 | 2.6 | 6.1 | 0.00 | 0.01 | 0.01 | 68 | 1010.4 |
| 20260506003448 | 63 | 169 | 2.6 | 6.1 | 0.00 | 0.01 | 0.01 | 68 | 1010.3 |
| 20260506002002 | 64 | 165 | 2.6 | 7.0 | 0.00 | 0.01 | 0.01 | 67 | 1010.2 |
| 20260506001843 | 64 | 165 | 2.6 | 7.0 | 0.00 | 0.01 | 0.01 | 67 | 1010.2 |
| 20260506000453 | 64 | 170 | 2.6 | 7.0 | 0.00 | 0.01 | 0.01 | 67 | 1010.0 |
| 20260505234851 | 64 | 171 | 3.5 | 7.0 | 0.00 | 0.01 | 0.01 | 66 | 1010.0 |
| 20260505233505 | 63 | 169 | 1.7 | 7.8 | 0.00 | 0.01 | 0.01 | 67 | 1009.6 |
| 20260505233354 | 63 | 169 | 1.7 | 7.8 | 0.00 | 0.01 | 0.01 | 67 | 1009.6 |
| 20260505231927 | 64 | 169 | 3.5 | 11.3 | 0.00 | 0.01 | 0.01 | 67 | 1009.5 |
| 20260505230532 | 64 | 169 | 2.6 | 8.7 | 0.00 | 0.01 | 0.01 | 65 | 1009.2 |
| 20260505230410 | 64 | 169 | 2.6 | 8.7 | 0.00 | 0.01 | 0.01 | 65 | 1009.2 |
| 20260505224949 | 65 | 172 | 4.3 | 11.3 | 0.01 | 0.01 | 0.01 | 64 | 1009.1 |
| 20260505223407 | 66 | 170 | 2.6 | 10.4 | 0.01 | 0.01 | 0.01 | 62 | 1009.2 |
| 20260505221953 | 67 | 171 | 3.5 | 12.2 | 0.01 | 0.01 | 0.01 | 61 | 1008.9 |
| 20260505220414 | 67 | 166 | 3.5 | 12.2 | 0.01 | 0.01 | 0.01 | 61 | 1009.0 |
| 20260505214936 | 68 | 141 | 4.3 | 9.6 | 0.00 | 0.00 | 0.00 | 60 | 1009.0 |
| 20260505214833 | 68 | 141 | 4.3 | 9.6 | 0.00 | 0.00 | 0.00 | 60 | 1009.0 |
| 20260505213514 | 68 | 141 | 2.6 | 9.6 | 0.00 | 0.00 | 0.00 | 60 | 1008.9 |
| 20260505213322 | 68 | 141 | 2.6 | 9.6 | 0.00 | 0.00 | 0.00 | 60 | 1008.9 |
| 20260505211914 | 67 | 140 | 3.5 | 12.2 | 0.00 | 0.00 | 0.00 | 61 | 1008.8 |
| 20260505210436 | 68 | 126 | 6.1 | 12.2 | 0.00 | 0.00 | 0.00 | 60 | 1008.8 |
| 20260505204931 | 68 | 135 | 3.5 | 10.4 | 0.00 | 0.00 | 0.00 | 60 | 1008.9 |
| 20260505203354 | 70 | 137 | 3.5 | 9.6 | 0.00 | 0.00 | 0.00 | 58 | 1008.9 |
| 20260505202016 | 70 | 139 | 3.5 | 13.9 | 0.00 | 0.00 | 0.00 | 58 | 1008.9 |
| 20260505201825 | 70 | 139 | 3.5 | 13.9 | 0.00 | 0.00 | 0.00 | 58 | 1008.9 |
| 20260505200441 | 72 | 139 | 3.5 | 12.2 | 0.00 | 0.00 | 0.00 | 55 | 1009.0 |
| 20260505200335 | 72 | 139 | 3.5 | 12.2 | 0.00 | 0.00 | 0.00 | 55 | 1009.0 |
| 20260505194953 | 72 | 141 | 2.6 | 7.0 | 0.00 | 0.00 | 0.00 | 57 | 1009.1 |
| 20260505194823 | 72 | 141 | 2.6 | 7.0 | 0.00 | 0.00 | 0.00 | 57 | 1009.1 |
| 20260505193428 | 72 | 141 | 3.5 | 7.8 | 0.00 | 0.00 | 0.00 | 58 | 1009.2 |
| 20260505191922 | 71 | 141 | 2.6 | 9.6 | 0.00 | 0.00 | 0.00 | 58 | 1009.6 |
| 20260505190422 | 71 | 143 | 2.6 | 6.1 | 0.00 | 0.00 | 0.00 | 60 | 1009.7 |
| 20260505184914 | 70 | 143 | 3.5 | 7.8 | 0.00 | 0.00 | 0.00 | 60 | 1010.0 |
| 20260505183521 | 70 | 143 | 3.5 | 7.0 | 0.00 | 0.00 | 0.00 | 61 | 1010.1 |
| 20260505183413 | 70 | 143 | 3.5 | 7.0 | 0.00 | 0.00 | 0.00 | 61 | 1010.1 |
| 20260505181936 | 70 | 143 | 2.6 | 9.6 | 0.00 | 0.00 | 0.00 | 62 | 1010.2 |
| 20260505181833 | 70 | 143 | 2.6 | 9.6 | 0.00 | 0.00 | 0.00 | 62 | 1010.2 |
| 20260505180427 | 70 | 142 | 2.6 | 7.0 | 0.00 | 0.00 | 0.00 | 64 | 1010.2 |
| 20260505174914 | 69 | 141 | 1.7 | 7.0 | 0.00 | 0.00 | 0.00 | 63 | 1010.4 |
| 20260505173400 | 70 | 141 | 2.6 | 7.8 | 0.00 | 0.00 | 0.00 | 63 | 1010.6 |
| 20260505172020 | 71 | 142 | 1.7 | 7.0 | 0.00 | 0.00 | 0.00 | 60 | 1010.6 |
| 20260505171835 | 71 | 142 | 1.7 | 7.0 | 0.00 | 0.00 | 0.00 | 60 | 1010.6 |
| 20260505170414 | 71 | 142 | 3.5 | 7.8 | 0.00 | 0.00 | 0.00 | 59 | 1010.6 |
| 20260505164925 | 71 | 141 | 1.7 | 6.1 | 0.00 | 0.00 | 0.00 | 59 | 1010.5 |
| 20260505163510 | 72 | 141 | 1.7 | 7.8 | 0.00 | 0.00 | 0.00 | 59 | 1010.9 |
| 20260505163402 | 72 | 141 | 1.7 | 7.8 | 0.00 | 0.00 | 0.00 | 59 | 1010.9 |
| 20260505162003 | 71 | 141 | 3.5 | 7.8 | 0.00 | 0.00 | 0.00 | 57 | 1011.0 |
| 20260505161851 | 71 | 141 | 3.5 | 7.8 | 0.00 | 0.00 | 0.00 | 57 | 1011.0 |
| 20260505160420 | 72 | 141 | 1.7 | 6.1 | 0.00 | 0.00 | 0.00 | 59 | 1011.0 |
| 20260505153348 | 70 | 141 | 0.9 | 7.0 | 0.00 | 0.00 | 0.00 | 60 | 1011.2 |
| 20260505152028 | 69 | 141 | 2.6 | 6.1 | 0.00 | 0.00 | 0.00 | 60 | 1011.4 |
| 20260505151906 | 69 | 141 | 2.6 | 6.1 | 0.00 | 0.00 | 0.00 | 60 | 1011.4 |
| 20260505150532 | 69 | 141 | 2.6 | 6.1 | 0.00 | 0.00 | 0.00 | 62 | 1011.7 |
| 20260505150337 | 69 | 141 | 2.6 | 6.1 | 0.00 | 0.00 | 0.00 | 62 | 1011.7 |
| 20260505140405 | 67 | 139 | 1.7 | 4.3 | 0.00 | 0.00 | 0.00 | 63 | 1011.3 |
| 20260505124950 | 63 | 140 | 0.9 | 4.3 | 0.00 | 0.00 | 0.00 | 72 | 1011.2 |
| 20260505123507 | 61 | 140 | 1.7 | 3.5 | 0.00 | 0.00 | 0.00 | 74 | 1011.0 |
| 20260505123350 | 61 | 140 | 1.7 | 3.5 | 0.00 | 0.00 | 0.00 | 74 | 1011.0 |
| 20260505121930 | 59 | 140 | 0.9 | 6.1 | 0.00 | 0.00 | 0.00 | 78 | 1011.0 |
| 20260505120409 | 58 | 140 | 0.0 | 2.6 | 0.00 | 0.00 | 0.00 | 82 | 1011.2 |
| 20260505114856 | 56 | 140 | 0.0 | 0.9 | 0.00 | 0.00 | 0.00 | 86 | 1011.3 |
| 20260505113432 | 54 | 140 | 0.0 | 1.7 | 0.00 | 0.00 | 0.00 | 89 | 1011.3 |
| 20260505111945 | 53 | 140 | 0.0 | 0.9 | 0.00 | 0.00 | 0.00 | 90 | 1011.2 |
| 20260505110456 | 52 | 0 | 0.0 | 0.9 | 0.00 | 0.00 | 0.00 | 90 | 1011.2 |
| 20260505101948 | 51 | 0 | 0.0 | 0.9 | 0.00 | 0.00 | 0.00 | 89 | 1010.6 |
| 20260505101846 | 51 | 0 | 0.0 | 0.9 | 0.00 | 0.00 | 0.00 | 89 | 1010.6 |
| 20260505100457 | 51 | 0 | 0.0 | 0.9 | 0.00 | 0.00 | 0.00 | 89 | 1010.3 |
| 20260505100355 | 51 | 0 | 0.0 | 0.9 | 0.00 | 0.00 | 0.00 | 89 | 1010.3 |
| 20260505095002 | 51 | 0 | 0.0 | 1.7 | 0.00 | 0.00 | 0.00 | 89 | 1010.2 |
| 20260505093435 | 51 | 0 | 0.0 | 0.9 | 0.00 | 0.00 | 0.00 | 89 | 1010.3 |
| 20260505091944 | 51 | 0 | 0.0 | 0.9 | 0.00 | 0.00 | 0.00 | 89 | 1010.3 |
| 20260505091831 | 51 | 0 | 0.0 | 0.9 | 0.00 | 0.00 | 0.00 | 89 | 1010.3 |
| 20260505090446 | 51 | 0 | 0.0 | 0.9 | 0.00 | 0.00 | 0.00 | 88 | 1010.4 |
| 20260505090326 | 51 | 0 | 0.0 | 0.9 | 0.00 | 0.00 | 0.00 | 88 | 1010.4 |
| 20260505085000 | 51 | 140 | 0.0 | 1.7 | 0.00 | 0.00 | 0.00 | 88 | 1010.3 |
| 20260505084843 | 51 | 140 | 0.0 | 1.7 | 0.00 | 0.00 | 0.00 | 88 | 1010.3 |
| 20260505083502 | 52 | 140 | 0.0 | 1.7 | 0.00 | 0.00 | 0.00 | 88 | 1010.4 |
| 20260505083336 | 52 | 140 | 0.0 | 1.7 | 0.00 | 0.00 | 0.00 | 88 | 1010.4 |
| 20260505081928 | 52 | 140 | 0.0 | 1.7 | 0.00 | 0.00 | 0.00 | 88 | 1010.3 |
| 20260505080539 | 52 | 140 | 0.0 | 1.7 | 0.00 | 0.00 | 0.00 | 88 | 1010.3 |
| 20260505080411 | 52 | 140 | 0.0 | 1.7 | 0.00 | 0.00 | 0.00 | 88 | 1010.3 |
| 20260505074915 | 52 | 0 | 0.0 | 1.7 | 0.00 | 0.00 | 0.00 | 87 | 1010.4 |
| 20260505073511 | 52 | 140 | 0.0 | 2.6 | 0.00 | 0.00 | 0.00 | 87 | 1010.3 |
| 20260505073359 | 52 | 140 | 0.0 | 2.6 | 0.00 | 0.00 | 0.00 | 87 | 1010.3 |
| 20260505071855 | 52 | 140 | 0.9 | 1.7 | 0.00 | 0.00 | 0.00 | 87 | 1010.4 |
| 20260505070352 | 52 | 140 | 0.0 | 1.7 | 0.00 | 0.00 | 0.00 | 86 | 1010.3 |
| 20260505065013 | 52 | 140 | 0.9 | 1.7 | 0.00 | 0.00 | 0.00 | 86 | 1010.4 |
| 20260505063436 | 52 | 140 | 0.9 | 1.7 | 0.00 | 0.00 | 0.00 | 86 | 1010.4 |
| 20260505063319 | 52 | 140 | 0.9 | 1.7 | 0.00 | 0.00 | 0.00 | 86 | 1010.4 |
| 20260505061928 | 53 | 140 | 0.9 | 2.6 | 0.00 | 0.00 | 0.00 | 85 | 1010.6 |
| 20260505060357 | 53 | 140 | 0.0 | 1.7 | 0.00 | 0.00 | 0.00 | 84 | 1010.6 |
| 20260505055025 | 53 | 140 | 0.0 | 1.7 | 0.00 | 0.00 | 0.00 | 84 | 1010.7 |
| 20260505054828 | 53 | 140 | 0.0 | 1.7 | 0.00 | 0.00 | 0.00 | 84 | 1010.7 |
| 20260505053511 | 53 | 140 | 0.0 | 1.7 | 0.00 | 0.00 | 0.00 | 82 | 1010.8 |
| 20260505051854 | 54 | 140 | 0.9 | 2.6 | 0.00 | 0.00 | 0.00 | 81 | 1010.8 |
| 20260505050524 | 54 | 140 | 0.0 | 1.7 | 0.00 | 0.00 | 0.00 | 80 | 1011.0 |
| 20260505050333 | 54 | 140 | 0.0 | 1.7 | 0.00 | 0.00 | 0.00 | 80 | 1011.0 |
| 20260505040442 | 55 | 140 | 0.9 | 4.3 | 0.00 | 0.00 | 0.00 | 75 | 1011.3 |
| 20260505035005 | 55 | 0 | 0.0 | 0.9 | 0.00 | 0.00 | 0.00 | 75 | 1011.2 |
| 20260505033428 | 55 | 140 | 0.0 | 2.6 | 0.00 | 0.00 | 0.00 | 76 | 1011.2 |
| 20260505031857 | 55 | 140 | 0.9 | 3.5 | 0.00 | 0.00 | 0.00 | 76 | 1011.4 |
| 20260505030517 | 55 | 140 | 0.9 | 3.5 | 0.00 | 0.00 | 0.00 | 77 | 1011.4 |
| 20260505030324 | 55 | 140 | 0.9 | 3.5 | 0.00 | 0.00 | 0.00 | 77 | 1011.4 |
| 20260505024905 | 55 | 0 | 0.0 | 2.6 | 0.00 | 0.00 | 0.00 | 76 | 1011.5 |
| 20260505023347 | 55 | 0 | 0.0 | 1.7 | 0.00 | 0.00 | 0.00 | 76 | 1011.5 |
| 20260505021903 | 55 | 140 | 0.9 | 2.6 | 0.00 | 0.00 | 0.00 | 75 | 1011.5 |
| 20260505020317 | 55 | 140 | 0.0 | 2.6 | 0.00 | 0.00 | 0.00 | 74 | 1011.5 |